[Iaude] MPEC X59: 2023 XX [a=1.52,e=0.21,i=33.2,H=22.3]

mpec at marsden.cfa.harvard.edu mpec at marsden.cfa.harvard.edu
Tue Dec 5 04:37:51 EST 2023


M.P.E.C. 2023-X59                              Issued 2023 December 5, 09:36 UT

     The Minor Planet Electronic Circulars contain information on unusual
         minor planets, routine data on comets and natural satellites,
         and occasional editorial announcements.  They are published
    on behalf of Division F of the International Astronomical Union by the
          Minor Planet Center, Smithsonian Astrophysical Observatory,
                          Cambridge, MA 02138, U.S.A.
			  
             Prepared using the Tamkin Foundation Computer Network

                              MPC at CFA.HARVARD.EDU
            URL https://www.minorplanetcenter.net/    ISSN 1523-6714

                                    2023 XX                                     


Observations:
     K23X00X*1C2023 12 03.24241103 49 25.460+35 02 37.43         21.04GVEX059G96
     K23X00X 1C2023 12 03.24802403 49 24.820+35 02 04.34         21.40GVEX059G96
     K23X00X 1C2023 12 03.25364703 49 24.078+35 01 32.38         21.13GVEX059G96
     K23X00X 1C2023 12 03.25927003 49 23.362+35 00 59.47         20.88GVEX059G96
     K23X00X KC2023 12 03.35032803 49 11.880+34 52 10.80         21.35GVEX059I52
     K23X00X KC2023 12 03.35301603 49 11.390+34 51 55.50               VEX059I52
     K23X00X KC2023 12 03.35570903 49 11.170+34 51 39.30         20.88GVEX059I52
     K23X00X KC2023 12 04.14399103 47 44.142+33 34 47.17         21.52GVEX059I52
     K23X00X KC2023 12 04.14610803 47 43.854+33 34 35.47         21.16GVEX059I52
     K23X00X KC2023 12 04.14822203 47 43.591+33 34 23.12         20.89GVEX059I52
     K23X00X KC2023 12 04.15034303 47 43.346+33 34 10.42         20.74GVEX059I52
     K23X00X  C2023 12 05.36286103 45 28.609+31 33 27.55         20.2 GVEX059H01
     K23X00X  C2023 12 05.36984003 45 27.822+31 32 45.18         19.9 GVEX059H01
     K23X00X  C2023 12 05.37657703 45 27.045+31 32 03.93         20.1 GVEX059H01
     K23X00X KC2023 12 05.38707503 45 25.862+31 30 59.96         21.0 GVEX059H01

Observer details:
G96 Mt. Lemmon Survey.  Observer H. Groeller.  Measurers E. C. Beshore, D.
    Fay, J. B. Fazekas, D. C. Fuls, A. R. Gibbs, A. D. Grauer, H. Groeller, J.
    K. Hogan, R. A. Kowalski, S. M. Larson, G. J. Leonard, D. Rankin, R. L.
    Seaman, F. C. Shelly, K. W. Wierzchos.  1.5-m reflector + 10K CCD.
H01 Magdalena Ridge Observatory, Socorro.  Observers W. H. Ryan, E. V. Ryan.
    Measurer W. H. Ryan.  2.4-m f/8.9 Ritchey-Chretien + CCD.
I52 Steward Observatory, Mt. Lemmon Station.  Observers R. A. Kowalski, G. J.
    Leonard.  Measurers E. C. Beshore, D. Fay, J. B. Fazekas, D. C. Fuls, A.
    R. Gibbs, A. D. Grauer, H. Groeller, J. K. Hogan, R. A. Kowalski, S. M.
    Larson, G. J. Leonard, D. Rankin, R. L. Seaman, F. C. Shelly, K. W.
    Wierzchos.  1.0-m prime focus + CCD.

Orbital elements:
2023 XX                                                  Earth MOID = 0.2805 AU
Epoch 2023 Sept. 13.0 TT = JDT 2460200.5                MPC                     
M 278.94840              (2000.0)            P               Q                  
n   0.52758763     Peri.  230.05209     -0.44149460     -0.72622935             
a   1.5168396      Node   254.14115     +0.89453714     -0.40200241             
e   0.2107362      Incl.   33.21605     -0.06989873     -0.55766028             
P   1.87           H   22.37          G   0.15           U   9                  
Residuals in seconds of arc
231203 G96  0.5-  0.4+    231203 I52  1.5-  0.3+    231204 I52  0.1-  0.1-
231203 G96  0.4+  0.3-    231203 I52  0.0   0.2-    231205 H01  0.2-  0.0
231203 G96  0.1+  0.2+    231204 I52  0.3+  0.4-    231205 H01  0.0   0.1+
231203 G96  0.1+  0.2-    231204 I52  0.1-  0.2+    231205 H01  0.0   0.1-
231203 I52  0.4+  0.1-    231204 I52  0.2-  0.3+    231205 H01  0.2+  0.0

Ephemeris:
2023 XX                  a,e,i = 1.52, 0.21, 33                  q = 1.1972
Date    TT    R. A. (2000) Decl.     Delta      r    Elong.  Phase     V
2023 11 05    04 48 03.6 +61 16 05   0.5186  1.3764   128.6    34.3    23.1
...
2023 11 20    04 18 46.5 +52 01 23   0.3929  1.3339   146.6    24.1    22.1
...
2023 11 28    04 00 18.1 +42 50 58   0.3442  1.3124   158.1    16.3    21.5
...
2023 12 04    03 47 59.1 +33 49 03   0.3209  1.2970   163.8    12.2    21.2
2023 12 05    03 46 08.8 +32 10 01   0.3184  1.2946   164.0    12.1    21.2
2023 12 06    03 44 22.9 +30 29 07   0.3162  1.2921   163.8    12.3    21.2
...
2023 12 12    03 35 23.9 +20 02 29   0.3121  1.2778   157.0    17.5    21.3
...
2023 12 20    03 27 58.1 +06 43 15   0.3288  1.2600   142.2    28.6    21.7
...
2024 01 04    03 26 35.5 -11 14 27   0.4082  1.2318   118.6    44.5    22.6

A. U. Tomatic                (C) Copyright 2023 MPC           M.P.E.C. 2023-X59




More information about the Iaude mailing list